{"data":{"norad_id":59608,"epoch":"2026-05-24T20:01:22.638720Z","epoch_age_seconds":96101,"freshness":"FRESH","line1":"1 59608U 24080H   26144.83428980  .00002238  00000+0  90844-4 0  9994","line2":"2 59608  43.0027 323.9353 0001292 264.5684  95.5020 15.27579946116232","mean_motion":15.27579946,"eccentricity":0.0001292,"inclination_deg":43.0027,"raan_deg":323.9353,"arg_perigee_deg":264.5684,"mean_anomaly_deg":95.502,"bstar":9.0844e-5,"rev_number":11623,"period_min":94.266752045984,"perigee_km":482.16279247058,"apogee_km":483.93572299958,"semimajor_km":6861.1862577351,"source":"CELESTRAK","updated_at":"2026-05-25T13:38:19.008975Z"}}